Photometre #358[Standard_N] Brussels AOT

File : 20220826_358.hum

26/08/2022,05:44:41,TEMP=17.9,BA=5.68,STAT.A=Abs.,ExtBa=13.00
26/08/2022,05:48:45,TEMP=18.1,BA=5.68,STAT.A=Abs.,ExtBa=12.94
26/08/2022,05:53:28,TEMP=18.1,BA=5.48,STAT.A=Abs.,ExtBa=12.91
26/08/2022,05:59:04,TEMP=18.1,BA=5.48,STAT.A=Abs.,ExtBa=12.89
26/08/2022,06:05:47,TEMP=18.0,BA=5.52,STAT.A=Abs.,ExtBa=12.88
26/08/2022,06:14:02,TEMP=18.1,BA=5.68,STAT.A=Abs.,ExtBa=12.89
26/08/2022,06:24:24,TEMP=18.1,BA=5.68,STAT.B=Abs.,ExtBa=12.90
26/08/2022,06:29:20,TEMP=18.3,BA=5.68,STAT.A=Abs.,ExtBa=12.87
26/08/2022,06:34:50,TEMP=18.4,BA=5.52,STAT.A=Abs.,ExtBa=12.85
26/08/2022,06:41:02,TEMP=18.6,BA=5.68,STAT.A=Abs.,ExtBa=12.85
26/08/2022,06:48:02,TEMP=19.0,BA=5.68,STAT.A=Abs.,ExtBa=12.86
26/08/2022,06:56:04,TEMP=19.1,BA=5.68,STAT.C=Abs.,ExtBa=12.86
26/08/2022,07:05:21,TEMP=19.1,BA=5.68,STAT.A=Abs.,ExtBa=12.86
26/08/2022,07:16:14,TEMP=19.1,BA=5.68,STAT.A=Abs.,ExtBa=12.87
26/08/2022,07:29:12,TEMP=19.3,BA=5.68,STAT.A=Abs.,ExtBa=12.90
26/08/2022,07:45:03,TEMP=19.6,BA=5.68,STAT.A=Abs.,ExtBa=12.92
26/08/2022,08:04:55,TEMP=20.2,BA=5.68,STAT.B=Abs.,ExtBa=12.94
26/08/2022,08:15:10,TEMP=20.2,BA=5.68,STAT.D=Abs.,ExtBa=12.92
26/08/2022,08:30:10,TEMP=20.1,BA=5.44,STAT.D=Abs.,ExtBa=12.94
26/08/2022,08:45:12,TEMP=19.8,BA=5.68,STAT.F,ExtBa=12.95
26/08/2022,09:00:10,TEMP=20.0,BA=5.44,STAT.D=Abs.,ExtBa=12.95
26/08/2022,09:15:10,TEMP=20.4,BA=5.68,STAT.D=Abs.,ExtBa=12.95
26/08/2022,09:30:11,TEMP=20.4,BA=5.44,STAT.D=Abs.,ExtBa=12.96
26/08/2022,09:45:12,TEMP=20.4,BA=5.68,STAT.F,ExtBa=12.97
26/08/2022,10:00:11,TEMP=21.0,BA=5.44,STAT.D=Abs.,ExtBa=12.97
26/08/2022,10:15:11,TEMP=22.3,BA=5.68,STAT.D=Abs.,ExtBa=12.97
26/08/2022,10:30:11,TEMP=22.4,BA=5.44,STAT.D=Abs.,ExtBa=12.94
26/08/2022,10:45:13,TEMP=22.2,BA=5.68,STAT.F,ExtBa=12.97
26/08/2022,11:00:11,TEMP=22.8,BA=5.44,STAT.D=Abs.,ExtBa=12.98
26/08/2022,11:15:11,TEMP=23.9,BA=5.68,STAT.D=Abs.,ExtBa=12.98
26/08/2022,11:30:11,TEMP=24.4,BA=5.44,STAT.D=Abs.,ExtBa=12.98
26/08/2022,11:45:13,TEMP=24.7,BA=5.68,STAT.F,ExtBa=12.99
26/08/2022,12:00:11,TEMP=24.8,BA=5.40,STAT.D=Abs.,ExtBa=13.00
26/08/2022,12:15:11,TEMP=24.0,BA=5.68,STAT.D=Abs.,ExtBa=13.01
26/08/2022,12:30:11,TEMP=24.5,BA=5.40,STAT.D=Abs.,ExtBa=13.01
26/08/2022,12:45:13,TEMP=25.1,BA=5.68,STAT.F,ExtBa=13.01
26/08/2022,13:00:11,TEMP=26.2,BA=5.40,STAT.D=Abs.,ExtBa=12.81
26/08/2022,13:15:11,TEMP=25.5,BA=5.68,STAT.D=Abs.,ExtBa=12.91
26/08/2022,13:30:11,TEMP=23.3,BA=5.44,STAT.D=Abs.,ExtBa=12.95
26/08/2022,13:45:12,TEMP=22.6,BA=5.68,STAT.F,ExtBa=12.96
26/08/2022,14:00:11,TEMP=22.8,BA=5.40,STAT.D=Abs.,ExtBa=12.97
26/08/2022,14:15:11,TEMP=23.8,BA=5.68,STAT.D=Abs.,ExtBa=12.98
26/08/2022,14:30:10,TEMP=24.0,BA=5.40,STAT.D=Abs.,ExtBa=12.98
26/08/2022,14:45:12,TEMP=23.7,BA=5.68,STAT.F,ExtBa=12.99
26/08/2022,15:00:10,TEMP=23.3,BA=5.40,STAT.D=Abs.,ExtBa=12.98
26/08/2022,15:15:10,TEMP=23.4,BA=5.68,STAT.D=Abs.,ExtBa=12.97
26/08/2022,15:25:29,TEMP=23.2,BA=5.68,STAT.B=Abs.,ExtBa=12.96
26/08/2022,15:45:21,TEMP=23.5,BA=5.68,STAT.A=Abs.,ExtBa=12.88
26/08/2022,16:01:11,TEMP=23.3,BA=5.68,STAT.A=Abs.,ExtBa=12.92
26/08/2022,16:14:08,TEMP=23.5,BA=5.68,STAT.A=Abs.,ExtBa=12.93
26/08/2022,16:25:01,TEMP=24.1,BA=5.68,STAT.A=Abs.,ExtBa=12.92
26/08/2022,16:34:18,TEMP=24.0,BA=5.68,STAT.C=Abs.,ExtBa=12.92
26/08/2022,16:45:32,TEMP=23.5,BA=5.44,STAT.A=Abs.,ExtBa=12.66
26/08/2022,16:49:20,TEMP=23.5,BA=5.44,STAT.A=Abs.,ExtBa=12.75
26/08/2022,16:55:30,TEMP=23.6,BA=5.44,STAT.A=Abs.,ExtBa=12.79
26/08/2022,17:01:02,TEMP=23.7,BA=5.68,STAT.A=Abs.,ExtBa=12.80
26/08/2022,17:05:58,TEMP=23.7,BA=5.68,STAT.B=Abs.,ExtBa=12.77
26/08/2022,17:16:20,TEMP=23.2,BA=5.40,STAT.A=Abs.,ExtBa=12.74
26/08/2022,17:24:35,TEMP=22.8,BA=5.68,STAT.A=Abs.,ExtBa=12.80
26/08/2022,17:31:18,TEMP=22.3,BA=5.68,STAT.A=Abs.,ExtBa=12.79
26/08/2022,17:36:54,TEMP=22.3,BA=5.68,STAT.A=Abs.,ExtBa=12.76
26/08/2022,17:41:37,TEMP=22.1,BA=5.68,STAT.A=Abs.,ExtBa=12.75
26/08/2022,17:45:41,TEMP=22.1,BA=5.68,STAT.A=Abs.,ExtBa=12.74